Location: Arbon
(43.0005°N, 0.7472°E)
Time: 21:25:12
(UTC+00:00)

Altair - Pass Details

Date: 04 December 2020
Orbit: 1501 x 1682 km, 47.2° (Epoch: 26 January)

Event Time Altitude Azimuth Distance (km) Brightness Sun altitude
Rises 18:04:33 0° 218° (SW) 4,791 11.0 -18.0°
Reaches altitude 10° 18:07:47 10° 214° (SW) 3,783 10.2 -18.6°
Maximum altitude 18:16:55 52° 141° (SE) 1,855 7.7 -20.2°
Enters shadow 18:21:17 31° 84° (E) 2,427 7.9 -21.0°
Drops below altitude 10° 18:25:46 10° 69° (ENE) 3,677 - -21.8°
Sets 18:28:51 0° 65° (ENE) 4,649 - -22.4°
